Change the Weather History Date:

Thursday, March 7, 2013

  Actual Average (K1V4) Record (K1V4)
Temperature  
Mean Temperature 31 °F 26 °F  
Max Temperature 34 °F 38 °F 63 °F (1974)
Min Temperature 28 °F 15 °F -22 °F (2007)
Degree Days  
Heating Degree Days 34 39  
Month to date heating degree days 280  
Since 1 July heating degree days 6004  
Cooling Degree Days 0 0  
Month to date cooling degree days 0  
Year to date cooling degree days 0  
Moisture  
Dew Point 19 °F    
Average Humidity 61    
Maximum Humidity 66    
Minimum Humidity 56    
Precipitation  
Precipitation 0.00 in 0.08 in 1.72 in (2011)
Month to date precipitation 0.52  
Year to date precipitation 5.20  
Sea Level Pressure  
Sea Level Pressure 30.15 in    
Wind  
Wind Speed 8 mph (NE)    
Max Wind Speed 14 mph    
Max Gust Speed 20 mph    
Visibility 10 miles    
Events      
T = Trace of Precipitation, MM = Missing Value Source: NWS Daily Summary

Daily Weather History Graph

Daily Weather History Graph

Search for Another Location

Airport or City:

Trip Planner

Search our weather history database for the weather conditions in past years. The results will help you decide how hot, cold, wet, or windy it might be!

Date:

Astronomy

Mar. 07, 2013 Rise Set
Actual Time 6:14 AM EST 5:44 PM EST
Civil Twilight 5:45 AM EST 6:13 PM EST
Nautical Twilight 5:11 AM EST 6:47 PM EST
Astronomical Twilight 4:37 AM EST 7:21 PM EST
Moon 3:20 AM EST (3/7) 1:20 PM EST (3/7)
Length of Visible Light 12h 27m
Length of Day
11h 29m
Waning Crescent, 20% of the Moon is Illuminated
Mar 7
Waning Crescent
Mar 11
New
Mar 19
First Quarter
Mar 27
Full
Apr 3
Last Quarter

Hourly Weather History & Observations

Time (EST) Temp. Windchill Dew Point Humidity Pressure Visibility Wind Dir Wind Speed Gust Speed Precip Events Conditions
12:15 AM 30.2 °F 25.4 °F 18.9 °F 63% 30.18 in 10.0 mi NE 4.6 mph - N/A   Unknown
12:35 AM 30.0 °F 24.1 °F 19.2 °F 64% 30.18 in 10.0 mi NE 5.8 mph - N/A   Unknown
12:55 AM 29.8 °F 23.0 °F 19.0 °F 64% 30.18 in 10.0 mi NE 6.9 mph - N/A   Unknown
1:15 AM 29.7 °F 22.0 °F 19.0 °F 65% 30.18 in 10.0 mi NE 8.1 mph - N/A   Unknown
1:35 AM 29.7 °F 22.0 °F 19.2 °F 65% 30.19 in 10.0 mi NE 8.1 mph - N/A   Unknown
1:55 AM 29.5 °F 22.5 °F 18.9 °F 65% 30.18 in 10.0 mi ENE 6.9 mph - N/A   Unknown
2:15 AM 29.3 °F 22.3 °F 18.7 °F 65% 30.19 in 10.0 mi ENE 6.9 mph - N/A   Unknown
2:35 AM 29.3 °F 20.8 °F 18.5 °F 64% 30.18 in 10.0 mi ENE 9.2 mph - N/A   Unknown
2:55 AM 29.3 °F 22.3 °F 18.1 °F 63% 30.18 in 10.0 mi ENE 6.9 mph - N/A   Unknown
3:15 AM 29.3 °F 23.2 °F 17.8 °F 62% 30.17 in 10.0 mi NE 5.8 mph - N/A   Unknown
3:35 AM 29.3 °F 23.2 °F 18.0 °F 63% 30.16 in 10.0 mi NE 5.8 mph - N/A   Unknown
3:55 AM 29.3 °F 22.3 °F 18.0 °F 63% 30.16 in 10.0 mi ENE 6.9 mph - N/A   Unknown
4:15 AM 29.3 °F 23.2 °F 17.8 °F 62% 30.16 in 10.0 mi NE 5.8 mph - N/A   Unknown
4:35 AM 29.1 °F 20.0 °F 17.6 °F 62% 30.16 in 10.0 mi NE 10.4 mph - N/A   Unknown
4:55 AM 29.1 °F 21.3 °F 17.2 °F 61% 30.17 in 10.0 mi ENE 8.1 mph - N/A   Unknown
5:15 AM 29.1 °F 18.9 °F 17.2 °F 61% 30.17 in 10.0 mi East 12.7 mph 19.6 mph N/A   Unknown
5:55 AM 28.8 °F 19.5 °F 17.4 °F 63% 30.16 in 10.0 mi NE 10.4 mph - N/A   Unknown
6:15 AM 28.8 °F 19.5 °F 17.4 °F 63% 30.16 in 10.0 mi East 10.4 mph - N/A   Unknown
6:35 AM 28.8 °F 20.9 °F 17.4 °F 63% 30.16 in 10.0 mi ENE 8.1 mph - N/A   Unknown
6:55 AM 28.8 °F 20.9 °F 17.6 °F 63% 30.16 in 10.0 mi ENE 8.1 mph 18.4 mph N/A   Unknown
7:15 AM 28.9 °F 20.4 °F 17.6 °F 63% 30.16 in 10.0 mi ENE 9.2 mph - N/A   Unknown
7:35 AM 28.9 °F 18.6 °F 18.1 °F 64% 30.16 in 10.0 mi ENE 12.7 mph 17.3 mph N/A   Unknown
7:55 AM 29.3 °F 20.8 °F 18.3 °F 64% 30.16 in 10.0 mi NE 9.2 mph 17.3 mph N/A   Unknown
8:15 AM 29.7 °F 21.3 °F 18.5 °F 63% 30.16 in 10.0 mi ENE 9.2 mph 16.1 mph N/A   Unknown
8:35 AM 30.2 °F 20.8 °F 18.7 °F 62% 30.16 in 10.0 mi ENE 11.5 mph 16.1 mph N/A   Unknown
8:55 AM 30.6 °F 21.8 °F 18.9 °F 62% 30.16 in 10.0 mi NE 10.4 mph 16.1 mph N/A   Unknown
9:15 AM 30.9 °F 20.7 °F 18.5 °F 60% 30.15 in 10.0 mi NE 13.8 mph 19.6 mph N/A   Unknown
9:35 AM 31.1 °F 23.1 °F 18.5 °F 60% 30.15 in 10.0 mi NE 9.2 mph 17.3 mph N/A   Unknown
9:55 AM 31.3 °F 22.7 °F 18.5 °F 59% 30.15 in 10.0 mi NE 10.4 mph - N/A   Unknown
10:15 AM 31.6 °F 21.6 °F 18.5 °F 58% 30.15 in 10.0 mi East 13.8 mph - N/A   Unknown
10:35 AM 31.8 °F 21.8 °F 18.5 °F 58% 30.14 in 10.0 mi NE 13.8 mph 18.4 mph N/A   Unknown
10:55 AM 32.7 °F 24.5 °F 18.9 °F 57% 30.13 in 10.0 mi NE 10.4 mph - N/A   Unknown
11:15 AM 32.0 °F 24.2 °F 18.7 °F 58% 30.13 in 10.0 mi NE 9.2 mph - N/A   Unknown
11:35 AM 32.9 °F 25.9 °F 19.0 °F 57% 30.14 in 10.0 mi ENE 8.1 mph - N/A   Unknown
11:55 AM 32.9 °F 24.1 °F 19.2 °F 57% 30.14 in 10.0 mi East 11.5 mph - N/A   Unknown
12:15 PM 33.1 °F 26.1 °F 19.2 °F 57% 30.14 in 10.0 mi East 8.1 mph - N/A   Unknown
12:35 PM 33.1 °F 26.9 °F 19.4 °F 57% 30.14 in 10.0 mi East 6.9 mph 11.5 mph N/A   Unknown
12:55 PM 33.1 °F 25.5 °F 19.6 °F 58% 30.13 in 10.0 mi ENE 9.2 mph - N/A   Unknown
1:15 PM 33.3 °F 27.9 °F 19.8 °F 58% 30.13 in 10.0 mi NE 5.8 mph - N/A   Unknown
1:35 PM 33.8 °F 25.8 °F 19.8 °F 56% 30.13 in 10.0 mi NE 10.4 mph - N/A   Unknown
1:55 PM 33.8 °F 27.7 °F 19.9 °F 57% 30.13 in 10.0 mi ENE 6.9 mph - N/A   Unknown
2:15 PM 34.0 °F 28.0 °F 20.1 °F 57% 30.13 in 10.0 mi NE 6.9 mph - N/A   Unknown
2:35 PM 34.2 °F 26.2 °F 20.1 °F 57% 30.12 in 10.0 mi NE 10.4 mph - N/A   Unknown
2:55 PM 34.0 °F 26.0 °F 20.1 °F 57% 30.12 in 10.0 mi NNE 10.4 mph 16.1 mph N/A   Unknown
3:15 PM 33.8 °F 27.7 °F 20.3 °F 58% 30.12 in 10.0 mi North 6.9 mph - N/A   Unknown
3:35 PM 33.8 °F 27.0 °F 20.1 °F 57% 30.13 in 10.0 mi North 8.1 mph - N/A   Unknown
3:55 PM 33.8 °F 26.4 °F 20.5 °F 58% 30.13 in 10.0 mi North 9.2 mph - N/A   Unknown
4:15 PM 33.3 °F 25.7 °F 20.3 °F 59% 30.13 in 10.0 mi North 9.2 mph - N/A   Unknown
4:35 PM 33.6 °F 27.5 °F 19.6 °F 56% 30.13 in 10.0 mi NNE 6.9 mph - N/A   Unknown
4:55 PM 33.4 °F 26.6 °F 19.8 °F 57% 30.13 in 10.0 mi NNE 8.1 mph - N/A   Unknown
5:15 PM 33.3 °F 27.1 °F 19.6 °F 57% 30.13 in 10.0 mi NNE 6.9 mph - N/A   Unknown
5:35 PM 33.3 °F 26.4 °F 19.6 °F 57% 30.14 in 10.0 mi NNE 8.1 mph - N/A   Unknown
5:55 PM 32.9 °F 26.7 °F 19.4 °F 58% 30.14 in 10.0 mi NNE 6.9 mph - N/A   Unknown
6:15 PM 32.5 °F 24.2 °F 19.4 °F 58% 30.15 in 10.0 mi NNE 10.4 mph - N/A   Unknown
6:35 PM 32.0 °F 23.6 °F 19.0 °F 59% 30.15 in 10.0 mi NNE 10.4 mph - N/A   Unknown
6:55 PM 32.0 °F 24.8 °F 19.4 °F 60% 30.15 in 10.0 mi NNE 8.1 mph - N/A   Unknown
8:35 PM 31.3 °F 25.6 °F 20.1 °F 63% 30.15 in 10.0 mi North 5.8 mph - N/A   Unknown
8:55 PM 31.1 °F 23.7 °F 19.4 °F 62% 30.14 in 10.0 mi North 8.1 mph - N/A   Unknown
9:15 PM 31.1 °F 25.4 °F 19.8 °F 63% 30.14 in 10.0 mi North 5.8 mph - N/A   Unknown
9:35 PM 30.9 °F 23.5 °F 19.8 °F 63% 30.13 in 10.0 mi North 8.1 mph - N/A   Unknown
9:55 PM 30.7 °F 24.1 °F 19.6 °F 63% 30.12 in 10.0 mi North 6.9 mph - N/A   Unknown
10:15 PM 30.6 °F 23.8 °F 19.9 °F 65% 30.11 in 10.0 mi NNW 6.9 mph - N/A   Unknown
10:35 PM 30.6 °F 23.1 °F 19.8 °F 64% 30.11 in 10.0 mi North 8.1 mph - N/A   Unknown
10:55 PM 30.2 °F 24.3 °F 20.1 °F 66% 30.10 in 10.0 mi NW 5.8 mph - N/A   Unknown
11:15 PM 30.2 °F 23.4 °F 19.6 °F 65% 30.10 in 10.0 mi NNW 6.9 mph - N/A   Unknown
11:35 PM 30.2 °F 24.3 °F 19.8 °F 65% 30.11 in 10.0 mi North 5.8 mph - N/A   Unknown
11:55 PM 30.0 °F 23.2 °F 19.8 °F 66% 30.10 in 10.0 mi NNW 6.9 mph - N/A   Unknown